Content
SEND FEEDBACK

Daily
Averages
Monthly
Summary
United States of America

SOLEDAD, CALIFORNIA


Home > North America > United States > California
Elevation: 200 feet     Latitude: 36 26N     Longitude: 121 19W

WEATHER
 
SELECT A DAY
Number of Records: 202,447;   Date Range: 1/1/95 - 10/19/14
 
SHARE

PRINT THIS DATA

[ ← Previous Day ]
WEATHER ALMANAC - MARCH 29, 2014
[ Next Day → ]
[ °C ]   °F
Weather ElementAverageHighLow
Temperature56 °F66.9 °F (1:53 pm)48 °F (4:53 am)
Dewpoint49.1 °F54 °F (4:53 pm)45 °F (3:53 am)
Humidity78.9 %93 % (9:53 pm)52 % (2:53 pm)
Barometer30.11 in30.19 in (1:53 am)30.02 in (6:29 pm)
Wind Speed7.1 mph21.9 mph (3:53 pm)
Wind Gust31.1 mph (3:53 pm)
Weather ElementAverage
Visibility8.7 mi
Wind DirectionSSE (150.8 °)

Weather ElementTotal
Precipitation0.28 in
Heating Degree Days7.6 (Base 65)
Growing Degree Days7.5 (Base 50)
Averaged from 24 records on March 29, 2014
WEATHER CONDITIONS BREAKOUT
WIND DIRECTION BREAKOUT
WEATHER BY HOUR - MARCH 29, 2014
[ °C ]   °F
Local TimeTemperatureDewpointHumidityBarometerVisibilityWind DirectionWind SpeedGust SpeedPrecipitationEventsConditions
1:53 AM52.0 °F46.0 °F80 %30.19 in10.0 miCalmClear
2:53 AM52.0 °F46.0 °F80 %30.18 in10.0 miCalmClear
3:53 AM50.0 °F45.0 °F83 %30.18 in10.0 miCalmClear
4:53 AM48.0 °F45.0 °F89 %30.16 in10.0 miCalmClear
5:53 AM48.9 °F45.0 °F86 %30.16 in10.0 miEast (100°)4.6 mphClear
6:53 AM48.9 °F45.0 °F86 %30.15 in10.0 miSE (140°)3.5 mphClear
7:53 AM48.9 °F46.0 °F90 %30.15 in10.0 miEast (100°)6.9 mphClear
8:53 AM53.1 °F46.9 °F80 %30.14 in10.0 miESE (120°)12.7 mphOvercast
9:53 AM57.0 °F48.9 °F74 %30.14 in10.0 miESE (120°)11.5 mphClear
10:53 AM62.1 °F48.9 °F62 %30.14 in10.0 miSE (130°)9.2 mphMostly Cloudy
11:53 AM63.0 °F48.9 °F60 %30.14 in10.0 miSE (140°)3.5 mphOvercast
12:53 PM66.0 °F50.0 °F56 %30.12 in10.0 miENE (70°)5.8 mphMostly Cloudy
1:53 PM66.9 °F50.0 °F54 %30.08 in10.0 miCalmOvercast
2:53 PM66.9 °F48.9 °F52 %30.06 in10.0 miWest (270°)12.7 mph17.3 mphOvercast
3:53 PM60.1 °F52.0 °F75 %30.06 in4.0 miWSW (250°)21.9 mph31.1 mph0.00 inRainLight Rain
4:53 PM60.1 °F54.0 °F80 %30.06 in10.0 miSW (230°)9.2 mph0.00 inOvercast
5:53 PM59.0 °F54.0 °F83 %30.05 in10.0 miWSW (240°)9.2 mph0.01 inRainLight Rain
6:29 PM57.2 °F53.6 °F88 %30.02 in4.0 miWSW (240°)11.5 mph0.04 inRainLight Rain
6:53 PM55.0 °F52.0 °F89 %30.06 in6.0 miWest (270°)11.5 mph0.05 inRainRain
7:53 PM55.0 °F52.0 °F89 %30.06 in6.0 miWSW (250°)6.9 mph0.04 inRainLight Rain
8:53 PM54.0 °F51.1 °F90 %30.07 in6.0 miWSW (240°)10.4 mph0.05 inRainLight Rain
9:53 PM53.1 °F51.1 °F93 %30.07 in7.0 miSSW (210°)4.6 mph0.08 inRainLight Rain
10:53 PM53.1 °F50.0 °F89 %30.08 in10.0 miWest (270°)4.6 mph0.00 inOvercast
11:53 PM53.1 °F48.9 °F86 %30.09 in6.0 miSW (230°)10.4 mph0.01 inRainLight Rain
Hourly data recorded from KSNS, located miles away from Soledad, California







STORIES FROM OUR PARTNERS